QPF
0.03 0.03 0.04 0.04 0.03 0.03 0.04 0.06 0.06 0.04 0.03 0.03 0.04 0.02 0.03 0.04 0.05 0.06 0.07 0.06 0.09 0.11 0.11 0.11 0.09 0.07 0.06 0.06 0.06 0.06 0.05 0.05 0.05 0.06 0.08 0.07 0.06 0.05 0.04 0.03 0.03 0.04 0.03
0.02 0.03 0.03 0.02 0.02 0.02 0.03 0.04 0.03 0.02 0.02 0.02 0.04 0.03 0.03 0.04 0.05 0.06 0.06 0.04 0.06 0.08 0.11 0.12 0.10 0.07 0.07 0.07 0.05 0.04 0.05 0.05 0.04 0.03 0.03 0.03 0.03 0.03 0.03 0.02 0.03 0.03 0.03
0.02 0.04 0.04 0.04 0.02 0.01 0.02 0.02 0.03 0.02 0.01 0.01 0.02 0.02 0.04 0.06 0.05 0.05 0.05 0.05 0.05 0.07 0.10 0.12 0.13 0.10 0.10 0.09 0.04 0.03 0.04 0.04 0.03 0.03 0.02 0.02 0.02 0.03 0.03 0.03 0.03 0.02 0.02
0.03 0.04 0.04 0.03 0.02 0.02 0.02 0.02 0.04 0.03 0.02 0.01 0.02 0.03 0.04 0.05 0.05 0.05 0.05 0.06 0.06 0.05 0.07 0.08 0.09 0.11 0.12 0.08 0.05 0.05 0.05 0.05 0.03 0.03 0.03 0.03 0.02 0.03 0.03 0.02 0.02 0.02 0.02
0.03 0.04 0.05 0.04 0.03 0.02 0.02 0.02 0.03 0.04 0.04 0.03 0.03 0.04 0.03 0.03 0.05 0.07 0.06 0.05 0.05 0.05 0.05 0.04 0.05 0.07 0.07 0.07 0.06 0.06 0.07 0.05 0.04 0.03 0.03 0.03 0.03 0.02 0.02 0.02 0.02 0.02 0.02
0.04 0.04 0.05 0.04 0.03 0.02 0.02 0.03 0.03 0.03 0.05 0.04 0.02 0.02 0.02 0.02 0.04 0.05 0.05 0.05 0.05 0.04 0.04 0.04 0.03 0.03 0.05 0.05 0.06 0.06 0.07 0.06 0.06 0.05 0.04 0.02 0.02 0.02 0.02 0.03 0.02 0.02 0.02
0.03 0.04 0.04 0.05 0.05 0.04 0.03 0.03 0.05 0.05 0.04 0.04 0.04 0.04 0.03 0.02 0.02 0.02 0.03 0.02 0.03 0.02 0.03 0.06 0.05 0.04 0.04 0.04 0.06 0.07 0.07 0.05 0.03 0.03 0.03 0.02 0.02 0.02 0.03 0.03 0.02 0.02 0.03
0.02 0.03 0.05 0.05 0.05 0.05 0.04 0.04 0.07 0.07 0.05 0.04 0.04 0.05 0.05 0.05 0.03 0.02 0.02 0.01 0.02 0.02 0.02 0.03 0.04 0.04 0.04 0.04 0.04 0.04 0.04 0.03 0.02 0.02 0.02 0.02 0.03 0.03 0.03 0.02 0.02 0.02 0.03
0.05 0.04 0.05 0.04 0.03 0.04 0.05 0.05 0.06 0.07 0.06 0.05 0.04 0.07 0.07 0.06 0.05 0.04 0.02 0.01 0.02 0.02 0.02 0.02 0.02 0.04 0.05 0.04 0.03 0.02 0.01 0.01 0.02 0.03 0.04 0.03 0.03 0.03 0.02 0.01 0.01 0.02 0.03
0.04 0.03 0.03 0.03 0.03 0.03 0.04 0.05 0.05 0.07 0.08 0.07 0.06 0.05 0.06 0.05 0.07 0.06 0.04 0.03 0.03 0.03 0.02 0.02 0.03 0.04 0.03 0.02 0.01 0.01 0.01 0.01 0.01 0.03 0.05 0.04 0.03 0.02 0.03 0.02 0.01 0.02 0.02
0.04 0.03 0.03 0.02 0.03 0.03 0.04 0.06 0.06 0.07 0.07 0.06 0.06 0.06 0.07 0.06 0.06 0.06 0.06 0.07 0.06 0.04 0.04 0.03 0.03 0.03 0.02 0.01 0.01 0.01 0.01 0.00 0.01 0.01 0.02 0.02 0.02 0.02 0.03 0.02 0.02 0.02 0.02
0.04 0.04 0.02 0.02 0.02 0.03 0.04 0.06 0.05 0.04 0.04 0.04 0.06 0.06 0.06 0.05 0.04 0.05 0.05 0.06 0.07 0.06 0.05 0.04 0.03 0.02 0.02 0.01 0.01 0.01 0.00 0.00 0.00 0.00 0.01 0.01 0.01 0.02 0.02 0.02 0.02 0.02 0.02
0.04 0.02 0.02 0.02 0.02 0.02 0.02 0.03 0.04 0.04 0.04 0.04 0.04 0.04 0.05 0.05 0.03 0.04 0.04 0.05 0.05 0.06 0.06 0.05 0.04 0.02 0.01 0.01 0.01 0.00 0.00 0.00 0.00 0.00 0.00 0.00 0.01 0.01 0.02 0.02 0.02 0.02 0.02
0.03 0.04 0.04 0.04 0.03 0.03 0.01 0.02 0.03 0.04 0.04 0.04 0.03 0.03 0.05 0.05 0.04 0.04 0.04 0.05 0.06 0.05 0.04 0.03 0.04 0.03 0.02 0.01 0.01 0.01 0.00 0.00 0.00 0.00 0.00 0.00 0.01 0.03 0.03 0.03 0.02 0.02 0.03
0.03 0.03 0.04 0.05 0.05 0.04 0.02 0.02 0.03 0.03 0.04 0.05 0.04 0.03 0.04 0.04 0.04 0.04 0.04 0.06 0.06 0.07 0.07 0.05 0.04 0.04 0.02 0.01 0.01 0.01 0.01 0.01 0.01 0.01 0.00 0.01 0.01 0.03 0.04 0.04 0.02 0.02 0.02
0.04 0.02 0.03 0.03 0.03 0.03 0.02 0.02 0.03 0.04 0.03 0.04 0.05 0.05 0.04 0.04 0.05 0.05 0.05 0.06 0.05 0.06 0.08 0.05 0.03 0.04 0.02 0.01 0.01 0.01 0.00 0.01 0.02 0.02 0.02 0.02 0.02 0.02 0.02 0.02 0.02 0.02 0.02
0.03 0.03 0.02 0.02 0.03 0.02 0.01 0.02 0.03 0.03 0.02 0.03 0.03 0.03 0.03 0.05 0.07 0.06 0.05 0.05 0.04 0.04 0.05 0.04 0.03 0.04 0.03 0.02 0.01 0.01 0.00 0.00 0.00 0.01 0.02 0.02 0.01 0.01 0.01 0.01 0.01 0.01 0.03
0.02 0.02 0.02 0.02 0.01 0.01 0.01 0.02 0.03 0.02 0.01 0.02 0.03 0.03 0.03 0.04 0.05 0.05 0.05 0.03 0.02 0.03 0.04 0.05 0.05 0.04 0.02 0.02 0.01 0.00 0.00 0.00 0.00 0.00 0.01 0.02 0.02 0.01 0.01 0.01 0.00 0.01 0.03
0.01 0.01 0.01 0.03 0.02 0.01 0.02 0.01 0.02 0.02 0.02 0.02 0.02 0.03 0.03 0.04 0.04 0.03 0.03 0.03 0.03 0.03 0.05 0.06 0.04 0.03 0.03 0.03 0.02 0.01 0.00 0.00 0.00 0.00 0.00 0.00 0.00 0.00 0.01 0.01 0.01 0.01 0.02
0.01 0.01 0.02 0.02 0.02 0.01 0.01 0.02 0.02 0.02 0.02 0.02 0.02 0.01 0.02 0.04 0.04 0.04 0.04 0.03 0.03 0.05 0.06 0.06 0.04 0.04 0.03 0.03 0.02 0.02 0.02 0.01 0.00 0.00 0.00 0.00 0.00 0.00 0.00 0.00 0.00 0.01 0.01
0.01 0.01 0.01 0.02 0.02 0.03 0.03 0.03 0.02 0.03 0.03 0.03 0.03 0.02 0.01 0.02 0.04 0.04 0.04 0.03 0.03 0.05 0.07 0.06 0.04 0.04 0.04 0.03 0.02 0.02 0.02 0.02 0.01 0.01 0.00 0.00 0.00 0.00 0.00 0.00 0.00 0.01 0.01
0.01 0.01 0.01 0.02 0.02 0.03 0.05 0.04 0.03 0.03 0.03 0.04 0.04 0.03 0.02 0.02 0.03 0.03 0.03 0.03 0.03 0.03 0.04 0.04 0.04 0.03 0.04 0.03 0.03 0.04 0.04 0.03 0.02 0.01 0.00 0.00 0.00 0.00 0.00 0.00 0.00 0.01 0.01
0.02 0.01 0.01 0.02 0.02 0.02 0.03 0.03 0.03 0.03 0.02 0.02 0.03 0.03 0.03 0.02 0.02 0.02 0.02 0.03 0.03 0.02 0.02 0.03 0.03 0.02 0.03 0.03 0.03 0.04 0.04 0.04 0.02 0.01 0.01 0.01 0.00 0.00 0.00 0.00 0.00 0.00 0.00
0.04 0.03 0.02 0.02 0.02 0.01 0.02 0.02 0.02 0.03 0.02 0.02 0.03 0.02 0.02 0.02 0.02 0.03 0.04 0.04 0.02 0.01 0.01 0.01 0.02 0.02 0.02 0.02 0.03 0.03 0.03 0.04 0.03 0.02 0.01 0.01 0.00 0.00 0.00 0.00 0.00 0.00 0.00
0.03 0.02 0.02 0.02 0.02 0.02 0.02 0.02 0.02 0.02 0.02 0.02 0.02 0.02 0.02 0.02 0.02 0.02 0.04 0.06 0.05 0.03 0.02 0.02 0.02 0.03 0.03 0.03 0.03 0.03 0.03 0.03 0.03 0.02 0.01 0.01 0.01 0.00 0.00 0.00 0.01 0.01 0.01
0.02 0.03 0.03 0.03 0.02 0.02 0.03 0.02 0.03 0.02 0.02 0.03 0.02 0.03 0.03 0.03 0.03 0.03 0.03 0.04 0.06 0.06 0.05 0.03 0.02 0.02 0.03 0.03 0.02 0.02 0.02 0.02 0.02 0.02 0.02 0.02 0.01 0.01 0.01 0.00 0.01 0.01 0.01
MSLP
1010.67 1010.93 1011.16 1011.34 1011.47 1011.56 1011.63 1011.72 1011.86 1012.06 1012.32 1012.63 1012.97 1013.28 1013.55 1013.73 1013.83 1013.84 1013.80 1013.75 1013.73 1013.80 1013.97 1014.26 1014.66 1015.15 1015.69 1016.25 1016.79 1017.28 1017.71 1018.08 1018.40 1018.67 1018.90 1019.10 1019.27 1019.40 1019.48 1019.52 1019.52 1019.49 1019.44
1010.84 1011.17 1011.48 1011.74 1011.96 1012.13 1012.27 1012.40 1012.56 1012.76 1013.01 1013.32 1013.65 1013.98 1014.27 1014.49 1014.63 1014.69 1014.68 1014.66 1014.64 1014.69 1014.83 1015.08 1015.43 1015.86 1016.35 1016.86 1017.35 1017.81 1018.21 1018.55 1018.84 1019.09 1019.31 1019.49 1019.64 1019.75 1019.82 1019.84 1019.83 1019.78 1019.71
1011.02 1011.41 1011.80 1012.16 1012.48 1012.74 1012.95 1013.13 1013.31 1013.52 1013.77 1014.07 1014.40 1014.75 1015.07 1015.34 1015.52 1015.63 1015.67 1015.66 1015.66 1015.69 1015.80 1016.00 1016.29 1016.66 1017.08 1017.52 1017.95 1018.35 1018.70 1018.99 1019.24 1019.46 1019.65 1019.81 1019.95 1020.06 1020.12 1020.15 1020.13 1020.08 1020.00
1011.20 1011.65 1012.12 1012.58 1012.99 1013.34 1013.63 1013.86 1014.07 1014.28 1014.53 1014.83 1015.16 1015.52 1015.86 1016.17 1016.40 1016.56 1016.64 1016.66 1016.67 1016.69 1016.77 1016.93 1017.16 1017.47 1017.82 1018.19 1018.55 1018.88 1019.17 1019.41 1019.61 1019.79 1019.95 1020.09 1020.22 1020.33 1020.41 1020.45 1020.44 1020.40 1020.33
1011.40 1011.88 1012.43 1012.97 1013.47 1013.91 1014.26 1014.54 1014.77 1014.99 1015.23 1015.51 1015.83 1016.19 1016.56 1016.90 1017.18 1017.38 1017.50 1017.56 1017.59 1017.62 1017.68 1017.80 1018.00 1018.25 1018.54 1018.85 1019.14 1019.40 1019.62 1019.80 1019.95 1020.09 1020.22 1020.35 1020.48 1020.60 1020.70 1020.76 1020.79 1020.77 1020.71
1011.61 1012.12 1012.71 1013.32 1013.89 1014.40 1014.80 1015.11 1015.36 1015.57 1015.79 1016.05 1016.36 1016.72 1017.10 1017.47 1017.80 1018.05 1018.22 1018.32 1018.38 1018.43 1018.49 1018.60 1018.76 1018.98 1019.23 1019.48 1019.72 1019.92 1020.08 1020.20 1020.31 1020.40 1020.50 1020.62 1020.75 1020.89 1021.02 1021.12 1021.17 1021.18 1021.15
1011.83 1012.35 1012.97 1013.62 1014.23 1014.77 1015.21 1015.53 1015.78 1015.98 1016.18 1016.42 1016.72 1017.07 1017.47 1017.87 1018.24 1018.54 1018.77 1018.93 1019.03 1019.11 1019.20 1019.31 1019.47 1019.67 1019.89 1020.11 1020.30 1020.46 1020.57 1020.65 1020.71 1020.76 1020.84 1020.95 1021.08 1021.24 1021.39 1021.52 1021.62 1021.66 1021.66
1012.07 1012.59 1013.20 1013.86 1014.48 1015.03 1015.47 1015.79 1016.01 1016.19 1016.37 1016.59 1016.88 1017.25 1017.67 1018.10 1018.53 1018.90 1019.19 1019.42 1019.58 1019.71 1019.83 1019.97 1020.14 1020.34 1020.55 1020.75 1020.92 1021.04 1021.12 1021.16 1021.18 1021.21 1021.27 1021.36 1021.50 1021.67 1021.84 1022.00 1022.13 1022.21 1022.24
1012.34 1012.83 1013.42 1014.04 1014.65 1015.17 1015.58 1015.88 1016.08 1016.24 1016.39 1016.60 1016.90 1017.28 1017.73 1018.21 1018.70 1019.14 1019.52 1019.82 1020.06 1020.26 1020.43 1020.62 1020.81 1021.02 1021.24 1021.43 1021.58 1021.68 1021.74 1021.76 1021.75 1021.76 1021.80 1021.89 1022.02 1022.19 1022.38 1022.56 1022.71 1022.81 1022.86
1012.61 1013.06 1013.61 1014.18 1014.74 1015.21 1015.58 1015.84 1016.01 1016.14 1016.29 1016.50 1016.80 1017.20 1017.70 1018.24 1018.80 1019.33 1019.79 1020.18 1020.51 1020.78 1021.03 1021.26 1021.49 1021.73 1021.95 1022.14 1022.29 1022.38 1022.42 1022.43 1022.41 1022.41 1022.44 1022.52 1022.65 1022.82 1023.01 1023.19 1023.35 1023.45 1023.51
1012.88 1013.29 1013.77 1014.29 1014.78 1015.19 1015.51 1015.72 1015.86 1015.97 1016.11 1016.32 1016.64 1017.08 1017.62 1018.22 1018.85 1019.46 1020.02 1020.51 1020.92 1021.28 1021.60 1021.89 1022.17 1022.44 1022.68 1022.88 1023.03 1023.12 1023.15 1023.15 1023.13 1023.13 1023.15 1023.23 1023.36 1023.52 1023.71 1023.88 1024.03 1024.12 1024.17
1013.11 1013.48 1013.91 1014.35 1014.77 1015.13 1015.39 1015.57 1015.68 1015.78 1015.91 1016.14 1016.47 1016.94 1017.52 1018.17 1018.87 1019.55 1020.20 1020.77 1021.28 1021.73 1022.12 1022.48 1022.81 1023.12 1023.38 1023.60 1023.76 1023.85 1023.90 1023.90 1023.89 1023.89 1023.92 1024.00 1024.13 1024.28 1024.45 1024.61 1024.73 1024.80 1024.82
1013.27 1013.60 1013.98 1014.38 1014.74 1015.05 1015.27 1015.42 1015.52 1015.61 1015.74 1015.97 1016.32 1016.80 1017.40 1018.09 1018.83 1019.57 1020.28 1020.94 1021.54 1022.07 1022.55 1022.98 1023.37 1023.72 1024.02 1024.27 1024.44 1024.56 1024.62 1024.64 1024.65 1024.67 1024.71 1024.80 1024.92 1025.07 1025.22 1025.36 1025.45 1025.48 1025.46
1013.32 1013.64 1013.99 1014.35 1014.68 1014.96 1015.16 1015.30 1015.40 1015.49 1015.63 1015.85 1016.20 1016.68 1017.28 1017.97 1018.73 1019.50 1020.26 1020.98 1021.65 1022.26 1022.82 1023.33 1023.80 1024.21 1024.56 1024.85 1025.06 1025.21 1025.30 1025.35 1025.38 1025.42 1025.49 1025.59 1025.71 1025.85 1025.99 1026.09 1026.15 1026.15 1026.08
1013.26 1013.56 1013.91 1014.26 1014.59 1014.86 1015.07 1015.22 1015.33 1015.44 1015.58 1015.80 1016.13 1016.58 1017.15 1017.82 1018.56 1019.34 1020.12 1020.88 1021.61 1022.29 1022.93 1023.53 1024.07 1024.56 1024.98 1025.32 1025.59 1025.79 1025.92 1026.00 1026.07 1026.14 1026.22 1026.33 1026.46 1026.59 1026.71 1026.80 1026.82 1026.78 1026.68
1013.08 1013.39 1013.74 1014.10 1014.45 1014.75 1015.00 1015.18 1015.32 1015.44 1015.59 1015.80 1016.11 1016.52 1017.04 1017.66 1018.36 1019.11 1019.88 1020.66 1021.43 1022.17 1022.89 1023.56 1024.19 1024.76 1025.26 1025.67 1026.01 1026.26 1026.45 1026.58 1026.68 1026.78 1026.88 1027.00 1027.13 1027.25 1027.36 1027.42 1027.42 1027.36 1027.24
1012.82 1013.14 1013.51 1013.90 1014.29 1014.64 1014.93 1015.17 1015.35 1015.51 1015.67 1015.87 1016.14 1016.51 1016.97 1017.52 1018.16 1018.86 1019.61 1020.38 1021.17 1021.95 1022.72 1023.47 1024.17 1024.82 1025.40 1025.90 1026.30 1026.62 1026.87 1027.05 1027.19 1027.31 1027.43 1027.55 1027.67 1027.78 1027.87 1027.92 1027.92 1027.84 1027.71
1012.52 1012.86 1013.25 1013.68 1014.11 1014.52 1014.87 1015.17 1015.40 1015.60 1015.79 1015.99 1016.24 1016.56 1016.96 1017.45 1018.03 1018.67 1019.37 1020.12 1020.90 1021.70 1022.50 1023.29 1024.06 1024.78 1025.43 1025.99 1026.47 1026.86 1027.16 1027.38 1027.56 1027.70 1027.82 1027.93 1028.04 1028.14 1028.22 1028.26 1028.25 1028.18 1028.06
1012.27 1012.61 1013.02 1013.48 1013.96 1014.41 1014.82 1015.18 1015.47 1015.72 1015.93 1016.15 1016.40 1016.69 1017.05 1017.49 1018.00 1018.58 1019.23 1019.94 1020.69 1021.48 1022.28 1023.09 1023.89 1024.64 1025.34 1025.96 1026.50 1026.94 1027.29 1027.55 1027.76 1027.91 1028.03 1028.13 1028.23 1028.30 1028.36 1028.39 1028.39 1028.34 1028.24
1012.11 1012.46 1012.88 1013.35 1013.85 1014.34 1014.80 1015.20 1015.54 1015.84 1016.09 1016.34 1016.60 1016.89 1017.24 1017.64 1018.11 1018.64 1019.24 1019.89 1020.59 1021.34 1022.11 1022.90 1023.68 1024.44 1025.16 1025.81 1026.38 1026.86 1027.24 1027.55 1027.77 1027.93 1028.05 1028.14 1028.21 1028.26 1028.30 1028.32 1028.32 1028.29 1028.23
1012.09 1012.44 1012.85 1013.33 1013.83 1014.33 1014.81 1015.24 1015.62 1015.95 1016.25 1016.54 1016.83 1017.15 1017.50 1017.90 1018.35 1018.85 1019.40 1020.00 1020.64 1021.31 1022.02 1022.74 1023.48 1024.20 1024.90 1025.54 1026.12 1026.62 1027.04 1027.36 1027.60 1027.78 1027.89 1027.97 1028.02 1028.05 1028.07 1028.08 1028.08 1028.07 1028.03
1012.23 1012.56 1012.97 1013.43 1013.91 1014.40 1014.87 1015.31 1015.71 1016.07 1016.41 1016.74 1017.08 1017.44 1017.83 1018.25 1018.70 1019.19 1019.70 1020.24 1020.80 1021.39 1022.00 1022.64 1023.28 1023.94 1024.58 1025.19 1025.76 1026.26 1026.69 1027.04 1027.31 1027.49 1027.61 1027.68 1027.72 1027.73 1027.72 1027.72 1027.72 1027.71 1027.70
1012.49 1012.82 1013.21 1013.64 1014.09 1014.55 1014.99 1015.42 1015.81 1016.19 1016.56 1016.93 1017.32 1017.74 1018.18 1018.64 1019.11 1019.60 1020.09 1020.58 1021.07 1021.56 1022.06 1022.58 1023.12 1023.67 1024.23 1024.79 1025.33 1025.83 1026.27 1026.64 1026.93 1027.14 1027.28 1027.35 1027.38 1027.37 1027.35 1027.33 1027.32 1027.30 1027.29
1012.81 1013.15 1013.53 1013.93 1014.35 1014.77 1015.17 1015.57 1015.95 1016.32 1016.71 1017.12 1017.56 1018.02 1018.52 1019.02 1019.54 1020.04 1020.51 1020.96 1021.38 1021.78 1022.18 1022.58 1023.00 1023.44 1023.92 1024.41 1024.91 1025.39 1025.84 1026.23 1026.55 1026.80 1026.96 1027.05 1027.08 1027.07 1027.04 1027.00 1026.96 1026.92 1026.90
1013.13 1013.49 1013.86 1014.25 1014.64 1015.02 1015.39 1015.75 1016.11 1016.48 1016.87 1017.30 1017.77 1018.28 1018.82 1019.38 1019.93 1020.44 1020.92 1021.34 1021.71 1022.03 1022.33 1022.63 1022.94 1023.28 1023.67 1024.10 1024.55 1025.02 1025.47 1025.89 1026.25 1026.53 1026.73 1026.84 1026.89 1026.88 1026.84 1026.77 1026.71 1026.65 1026.59
1013.36 1013.75 1014.15 1014.53 1014.91 1015.28 1015.62 1015.96 1016.30 1016.66 1017.05 1017.48 1017.98 1018.52 1019.09 1019.68 1020.25 1020.79 1021.27 1021.67 1022.01 1022.28 1022.51 1022.73 1022.95 1023.22 1023.53 1023.90 1024.32 1024.76 1025.22 1025.66 1026.05 1026.36 1026.60 1026.75 1026.81 1026.81 1026.76 1026.68 1026.59 1026.49 1026.39
Thickness
5724 5722 5721 5720 5719 5719 5719 5719 5718 5719 5718 5718 5718 5716 5715 5714 5712 5710 5710 5710 5711 5712 5712 5712 5712 5711 5711 5711 5711 5710 5710 5709 5709 5710 5710 5710 5710 5711 5711 5712 5713 5713 5714
5722 5720 5718 5717 5717 5716 5716 5715 5715 5714 5713 5712 5712 5711 5710 5709 5708 5707 5706 5705 5705 5706 5707 5707 5707 5706 5706 5706 5706 5706 5705 5704 5704 5705 5705 5705 5705 5706 5707 5707 5708 5709 5709
5719 5717 5715 5714 5713 5713 5712 5711 5710 5710 5709 5708 5707 5706 5705 5705 5704 5703 5703 5702 5701 5700 5701 5701 5701 5702 5702 5701 5701 5701 5700 5699 5699 5700 5700 5700 5700 5701 5702 5703 5703 5703 5704
5716 5714 5712 5711 5710 5710 5708 5707 5705 5704 5703 5703 5702 5701 5701 5701 5701 5700 5700 5699 5697 5696 5696 5696 5696 5696 5696 5696 5696 5696 5695 5695 5695 5695 5695 5695 5696 5696 5697 5698 5698 5698 5699
5713 5711 5710 5708 5707 5706 5705 5704 5701 5700 5698 5698 5697 5697 5697 5697 5696 5697 5696 5696 5694 5693 5691 5691 5691 5691 5691 5691 5691 5691 5691 5691 5690 5690 5690 5690 5691 5691 5692 5692 5693 5693 5694
5709 5708 5707 5705 5704 5702 5700 5699 5697 5697 5696 5695 5695 5693 5693 5693 5693 5693 5693 5692 5691 5690 5689 5687 5686 5686 5686 5686 5686 5686 5686 5686 5686 5686 5686 5686 5686 5686 5687 5687 5688 5689 5690
5705 5704 5703 5702 5700 5698 5697 5696 5694 5692 5691 5692 5689 5686 5687 5689 5689 5689 5689 5689 5688 5687 5686 5685 5684 5683 5682 5681 5681 5681 5682 5682 5682 5682 5682 5682 5682 5682 5683 5683 5684 5685 5685
5701 5700 5699 5697 5696 5694 5693 5692 5691 5688 5688 5689 5685 5680 5676 5677 5681 5685 5685 5685 5685 5684 5683 5682 5681 5680 5678 5677 5676 5676 5677 5677 5677 5677 5677 5678 5678 5678 5678 5679 5679 5680 5680
5698 5697 5695 5694 5693 5691 5689 5689 5688 5686 5684 5685 5686 5681 5673 5668 5672 5676 5680 5681 5681 5680 5679 5679 5678 5676 5674 5673 5672 5671 5672 5672 5673 5673 5673 5673 5673 5674 5674 5674 5674 5674 5675
5694 5693 5692 5691 5690 5689 5687 5687 5686 5685 5683 5681 5682 5683 5682 5678 5670 5667 5671 5675 5677 5676 5676 5676 5674 5673 5671 5669 5668 5667 5667 5668 5668 5669 5669 5669 5669 5669 5669 5669 5669 5670 5670
5690 5690 5689 5688 5687 5686 5685 5685 5684 5683 5682 5680 5679 5679 5678 5677 5676 5668 5663 5666 5669 5671 5671 5671 5670 5669 5667 5665 5664 5663 5663 5663 5663 5664 5664 5664 5665 5665 5665 5665 5665 5665 5665
5686 5686 5686 5685 5684 5684 5683 5682 5682 5681 5680 5679 5678 5677 5675 5673 5671 5669 5664 5662 5662 5664 5667 5667 5667 5665 5663 5662 5660 5659 5659 5658 5659 5659 5659 5660 5660 5660 5660 5660 5660 5660 5660
5681 5682 5682 5682 5681 5681 5681 5680 5679 5678 5678 5677 5676 5675 5675 5674 5673 5671 5666 5662 5660 5660 5661 5662 5662 5661 5659 5658 5656 5655 5654 5654 5654 5654 5654 5655 5655 5655 5656 5656 5655 5655 5654
5679 5679 5679 5678 5678 5678 5678 5677 5676 5676 5676 5675 5675 5674 5673 5673 5673 5670 5667 5662 5657 5656 5656 5656 5657 5657 5656 5654 5653 5652 5650 5650 5649 5649 5650 5650 5650 5651 5651 5650 5650 5649 5648
5677 5677 5676 5675 5675 5674 5674 5674 5673 5673 5673 5672 5672 5671 5671 5671 5670 5669 5668 5664 5658 5651 5649 5652 5652 5653 5652 5651 5649 5647 5646 5645 5645 5645 5645 5645 5645 5645 5645 5644 5644 5643 5643
5674 5673 5672 5672 5671 5671 5672 5671 5670 5669 5669 5669 5669 5668 5668 5668 5667 5666 5665 5664 5661 5656 5650 5651 5651 5651 5649 5647 5645 5644 5643 5641 5641 5641 5641 5641 5640 5640 5639 5639 5638 5638 5637
5670 5669 5669 5668 5668 5668 5668 5667 5666 5666 5665 5665 5665 5665 5665 5665 5664 5663 5662 5661 5660 5657 5650 5649 5650 5649 5647 5645 5642 5641 5639 5638 5637 5637 5636 5636 5635 5635 5634 5633 5633 5632 5632
5667 5666 5665 5664 5664 5664 5664 5663 5662 5662 5662 5661 5662 5662 5661 5662 5661 5660 5659 5657 5657 5656 5651 5646 5645 5644 5643 5643 5641 5639 5637 5635 5634 5633 5633 5632 5631 5630 5629 5628 5627 5627 5626
5662 5661 5661 5660 5659 5659 5659 5659 5659 5659 5659 5659 5659 5659 5659 5658 5657 5657 5656 5654 5653 5653 5650 5645 5642 5642 5640 5640 5638 5636 5635 5633 5632 5630 5629 5627 5626 5625 5624 5623 5622 5622 5621
5657 5656 5656 5656 5655 5655 5654 5655 5655 5655 5655 5656 5656 5656 5656 5655 5654 5653 5653 5651 5650 5647 5645 5642 5639 5637 5636 5636 5634 5631 5629 5629 5628 5627 5625 5624 5622 5621 5620 5618 5618 5617 5616
5652 5651 5651 5650 5650 5649 5649 5649 5649 5650 5650 5650 5651 5652 5652 5653 5652 5651 5650 5647 5646 5643 5640 5638 5635 5634 5632 5631 5629 5629 5626 5625 5624 5624 5621 5620 5618 5617 5615 5614 5613 5612 5611
5645 5645 5644 5643 5643 5644 5644 5644 5644 5644 5644 5644 5644 5646 5647 5647 5647 5647 5646 5645 5643 5641 5637 5635 5633 5631 5630 5629 5628 5627 5623 5621 5618 5620 5618 5616 5615 5613 5613 5611 5611 5609 5608
5639 5638 5638 5637 5636 5637 5638 5638 5638 5638 5638 5638 5638 5639 5640 5641 5641 5640 5640 5640 5639 5638 5637 5635 5632 5630 5629 5629 5627 5624 5622 5620 5618 5619 5616 5613 5613 5611 5611 5610 5608 5607 5605
5632 5632 5631 5631 5630 5631 5631 5631 5632 5631 5631 5632 5632 5632 5632 5633 5634 5634 5633 5633 5633 5633 5633 5632 5631 5631 5630 5629 5627 5625 5622 5619 5617 5616 5614 5609 5610 5609 5609 5607 5606 5604 5602
5626 5626 5626 5625 5624 5624 5625 5625 5625 5624 5624 5624 5625 5626 5626 5626 5627 5627 5626 5625 5625 5626 5628 5628 5628 5627 5627 5626 5624 5620 5617 5613 5610 5610 5610 5607 5607 5606 5605 5604 5603 5601 5599
5620 5620 5619 5619 5618 5618 5618 5618 5617 5617 5617 5617 5617 5618 5619 5620 5620 5619 5618 5618 5617 5618 5620 5621 5620 5620 5620 5620 5619 5617 5614 5610 5607 5605 5607 5604 5603 5601 5599 5600 5599 5597 5596